www.pogodaiklimat.ru

Погода и климат >> Архив погоды >> Россия >> город Санкт-Петербург >> Санкт-Петербург


АРХИВ ПОГОДЫ в Санкт-Петербурге

Время (UTC), дата Ветер
(напр.,м/с)
 
Видим.   Явления Облачность Т
(С)
Тd
(С)
f
(%)
Тe
(С)
Тes
(С)
Комфортность P
(гПа)
Po
(гПа)
Тmin
(С)
Tmax
(С)
R
(мм)
R24
(мм)
S
(см)
09 12.11 Ю 3 10 км 10/10
[Sc]
+2.2 -3.3 67 -2 -2 по сезону 1031.1 1030.3
12 12.11 Ю 3 10 км 10/10 600 м
[Sc]
+2.4 -2.6 70 -1 -1 по сезону 1030.2 1029.4
15 12.11 Ю 3 10 км 10/10 300 м
[Sc]
+2.2 -2.2 73 -2 -2 по сезону 1029.2 1028.3
18 12.11 Ю 3 10 км 10/10 300 м
[Sc]
+1.7 -2.2 75 -2 -2 по сезону 1028.4 1027.6 +2.5
21 12.11 Ю 5 10 км слабый дождь со снегом 10/10 300 м
[Frnb Ns]
+1.2 -1.0 85 -5 -5 прохладно 1027.1 1026.3
00 13.11 Ю 4 10 км {снег} 10/10 200 м
[St]
+1.2 -0.7 87 -4 -4 по сезону 1025.4 1024.6
03 13.11 Ю 3 10 км слабый дождь 10/10 200 м
[St]
+1.3 0.0 91 -3 -3 по сезону 1023.3 1022.5 +1.1 0.6
06 13.11 Ю 3 10 км слабый дождь {ливн. осадки} 10/10 300 м
[Frnb Ns]
+1.3 -0.2 90 -3 -3 по сезону 1019.7 1018.9 +1.1 3
09 13.11 Ю 4 10 км дождь 10/10 300 м
[Frnb Ns]
+1.7 +0.7 93 -4 -4 по сезону 1017.5 1016.7
12 13.11 Ю 3 10 км слабый дождь 10/10 300 м
[Frnb Ns]
+3.2 +1.3 87 -1 -1 по сезону 1015.9 1015.1
15 13.11 Ю 3 10 км слабый дождь 10/10 300 м
[Frnb Ns]
+3.9 +2.3 89 0 0 по сезону 1015.6 1014.8 12
18 13.11 Ю 2 10 км слабый дождь 10/10 300 м
[Frnb Ns]
+4.5 +3.2 91 +2 +2 тепло 1015.0 1014.2 +4.6 12
21 13.11 Ю 3 10 км в посл. час дождь 10/10 200 м
[St]
+5.1 +3.6 90 +2 +2 тепло 1014.7 1013.9
00 14.11 ЮЗ 2 10 км 10/10 200 м
[St]
+5.5 +4.1 91 +3 +3 тепло 1014.8 1014.0
03 14.11 ЮЗ 1 10 км 10/10 200 м
[St]
+5.5 +4.5 93 +4 +4 тепло 1015.5 1014.7 +3.9 3
06 14.11 ЮЗ 1 10 км 10/10 870 м
[Sc]
+5.6 +4.4 92 +4 +4 тепло 1016.7 1015.9 +4.6 2
09 14.11 ЮЗ 1 10 км 10/10 960 м
[Sc]
+5.9 +4.3 89 +5 +5 тепло 1017.9 1017.1
12 14.11 С 1 10 км {дождь, морось} 10/10 750 м
[Sc]
+5.9 +4.9 93 +5 +5 тепло 1019.3 1018.5
15 14.11 штиль 0 10 км 10/10 480 м
[Sc]
+5.6 +3.8 88 +5 +5 тепло 1021.5 1020.7 0.0
18 14.11 штиль 0 10 км {морось} 10/10 480 м
[Sc]
+5.7 +2.8 82 +5 +5 тепло 1022.6 1021.8 +6.2 0.0
21 14.11 С 1 10 км 10/10 600 м
[Sc]
+5.3 +2.9 84 +4 +4 тепло 1024.4 1023.6
00 15.11 штиль 0 10 км 10/10 700 м
[Sc]
+4.8 +2.8 87 +4 +4 тепло 1026.1 1025.3
03 15.11 Ю 1 2000 м дымка 10/10 660 м
[Sc]
+5.0 +3.3 89 +4 +4 тепло 1027.6 1026.8 +4.8 0.0
06 15.11 ЮЗ 1 18 км 10/10 630 м
[Sc]
+5.9 +3.4 84 +5 +5 тепло 1029.5 1028.7 +4.8
09 15.11 ЮЗ 2 10 км 10/10 840 м
[Sc]
+6.4 +3.7 83 +4 +4 тепло 1031.1 1030.3
12 15.11 ЮЗ 2 10 км 10/10 800 м
[Sc]
+7.2 +2.9 74 +5 +5 тепло 1032.5 1031.7
15 15.11 ЮЗ 2 10 км 10/10 700 м
[Sc]
+6.8 +3.2 78 +5 +5 тепло 1033.7 1032.9
18 15.11 ЮЗ 3 10 км 10/10 720 м
[Sc]
+6.5 +2.4 75 +4 +4 тепло 1034.6 1033.8 +7.2
21 15.11 ЮЗ 3 10 км 10/10 800 м
[Sc]
+6.4 +2.7 77 +3 +3 тепло 1035.6 1034.7
00 16.11 ЮЗ 3 10 км 10/10 1050 м
[Sc]
+6.7 +2.8 76 +4 +4 тепло 1035.8 1034.9
03 16.11 ЮЗ 3 10 км 10/10 1020 м
[Sc]
+6.4 +2.8 78 +3 +3 тепло 1036.4 1035.6 +6.3
06 16.11 ЮЗ 3 10 км 6/3 1000 м
[Cu hum Ac trans]
+6.2 +2.6 78 +3 +3 тепло 1037.0 1036.2 +6.1
09 16.11 ЮЗ 3 10 км 10/0 600 м
[Sc]
+6.5 +2.8 77 +4 +4 тепло 1037.9 1037.1
12 16.11 ЮЗ 3 10 км {морось} 10/10 600 м
[Sc diur, vesp]
+7.2 +3.6 78 +4 +4 тепло 1037.4 1036.6
15 16.11 ЮЗ 5 10 км 10/10 300 м
[Sc diur, vesp]
+7.3 +4.1 80 +3 +3 тепло 1037.0 1036.2 0.0
18 16.11 ЮЗ 3 10 км 10/10 300 м
[Sc diur, vesp]
+7.5 +4.1 79 +5 +5 тепло 1036.8 1036.0 +7.5 0.0
21 16.11 ЮЗ 4 10 км 6/6 600 м
[Sc diur, vesp]
+7.2 +4.2 81 +4 +4 тепло 1035.9 1035.1
00 17.11 ЮЗ 4 10 км 8/8 600 м
[Sc diur, vesp]
+7.4 +3.6 77 +4 +4 тепло 1034.8 1034.0
03 17.11 ЮЗ 5 10 км 9/9 300 м
[Sc diur, vesp]
+7.3 +3.9 79 +3 +3 тепло 1033.2 1032.4 +7.1
06 17.11 З 2
{11}
10 км 9/9 300 м
[Sc diur, vesp]
+7.1 +4.1 81 +5 +5 тепло 1031.0 1030.2 +7.0
09 17.11 З 4
{10}
10 км 10/10 300 м
[Sc diur, vesp]
+7.7 +4.3 79 +4 +4 тепло 1029.6 1028.8
12 17.11 З 4
{12}
10 км 9/9 600 м
[Sc]
+6.9 +4.0 82 +3 +3 тепло 1028.1 1027.3
15 17.11 СЗ 4
{11}
10 км 9/9 600 м
[Sc]
+7.2 +2.9 74 +4 +4 тепло 1026.0 1025.2
18 17.11 СЗ 4
{10}
10 км 8/8 600 м
[Sc]
+6.8 +2.3 73 +3 +3 тепло 1024.1 1023.3 +8.0
21 17.11 СЗ 3 10 км 4/0
[Ac trans]
+5.2 +1.7 78 +2 +2 тепло 1022.5 1021.7
00 18.11 С 3 10 км 6/0
[Ac trans]
+5.3 +1.6 77 +2 +2 тепло 1021.8 1021.0
03 18.11 С 4-10
{10}
4000 м слабый дождь 10/10 300 м
[Sc]
+5.4 +2.9 84 +1 +1 тепло 1023.5 1022.7 +4.9 0.3
06 18.11 СВ 4
{11}
10 км в посл. час дождь 8/8 300 м
[Sc diur, vesp]
+5.0 +0.2 71 +1 +1 тепло 1026.4 1025.6 +4.7 0.6
09 18.11 СВ 4
{15}
10 км 10/9 300 м
[Sc diur, vesp]
+4.8 -1.1 66 +1 +1 по сезону 1028.3 1028.3
12 18.11 СВ 4-10
{12}
10 км сильный снег 9/9 600 м
[]
+4.0 -1.6 67 -0 -0 по сезону 1031.3 1030.5
15 18.11 СВ 3
{12}
10 км 10/10 600 м
[Sc diur, vesp]
+3.6 -1.2 71 0 0 по сезону 1032.9 1032.1 0.3
18 18.11 СВ 3
{11}
10 км 10/10 600 м
[Sc diur, vesp]
+3.5 -2.3 66 0 0 по сезону 1034.5 1033.7 +5.1
21 18.11 СВ 2 10 км 9/9 300 м
[Sc diur, vesp]
+2.1 -1.0 80 -1 -1 по сезону 1036.0 1035.2
00 19.11 СВ 2 10 км 10/10 600 м
[Sc diur, vesp]
+1.3 -0.9 85 -2 -2 по сезону 1036.7 1035.9
03 19.11 СВ 1 10 км в посл. час морось 10/10 600 м
[Sc diur, vesp]
+1.2 -1.0 85 -1 -1 по сезону 1037.4 1036.6 +1.0 0.3
06 19.11 В 1 10 км слабый снег {морось} 10/10 200 м
[Sc]
+0.7 -0.8 90 -1 -1 по сезону 1038.1 1037.3 +0.6 0.7 <0.5

 

Местоположение метеостанции Санкт-Петербург (город Санкт-Петербург, Россия): широта 59.97 долгота 30.30 высота над уровнем моря 6 м.

В архиве по умолчанию представлена погода в Санкт-Петербурге за последнюю неделю. Архивные данные за месяц целиком и за предыдущие месяцы, начиная с января 2011 года, Вы можете получить, выбрав интересующий диапазон дат из раскрывающегося списка и нажав кнопку "Ввод!".


*Определитесь, кто Вы:
робот инопланетянин человек

Внимание! Время в таблицах - всемирное. Для получения местного времени необходимо прибавить поправку, которая в Санкт-Петербурге равна 3 ч.

Смотрите также архив погоды в соседних городах и на ближайших метеорологических станциях:

Погода в Лисьем Носу (город Санкт-Петербург, Россия) (19 км)
Погода в Воейково (город Санкт-Петербург, Россия) (22 км)
Погода в Ломоносове (город Санкт-Петербург, Россия) (29 км)
Погода в Кронштадте (город Санкт-Петербург, Россия) (30 км)
Погода в Шлиссельбурге (Ленинградская область, Россия) (39 км)
Погода в Рощино (Ленинградская область, Россия) (48 км)
Погода в Шепелево (Ленинградская область, Россия) (58 км)
Погода в Сосново (Ленинградская область, Россия) (65 км)
Погода в Сосновом Бору (Ленинградская область, Россия) (65 км)
Погода в Белогорке (Ленинградская область, Россия) (70 км)

Пояснения к столбцам:

Ветер - указаны скорость ветра в м/с - средняя за 10 мин, порывы в срок и между сроками (в фигурных скобках) и направление, откуда дует ветер: С - северный, СВ - северо-восточный, В - восточный, ЮВ - юго-восточный, Ю - южный, ЮЗ - юго-западный, З - западный, СЗ - северо-западный.
Видимость - горизонтальная дальность видимости в метрах или километрах. При видимости от 1 до 10 км при отсутствии осадков обычно наблюдается дымка, при ухудшении видимости до 1 км и менее - туман. В сухую погоду видимость может ухудшаться дымом, пылью или мглою.
Явления - указаны атмосферные явления, наблюдавшиеся в срок или в последний час перед сроком; фигурными скобками обозначены явления, наблюдавшиеся между сроками (за 1-3 часа до срока); квадратными скобками обозначены град или гололедные отложения с указанием их диаметра в мм.
Облачность - указаны через наклонную черту общая и нижняя облачность в баллах и высота нижней границы облаков в метрах; квадратными скобками обозначены формы облаков: Ci - перистые, Cs - перисто-слоистые, Cc - перисто-кучевые, Ac - высококучевые, As - высокослоистые, Sc - слоисто-кучевые, Ns - слоисто-дождевые, Cu - кучевые, Cb - кучево-дождевые. Подробнее классификацию облаков см. в Атласе облаков (PDF).
T - Температура воздуха - температура, измеренная на высоте 2 м над землей.
Td - Температура точки росы - температура, при понижении до которой содержащийся в воздухе водяной пар достигнет насыщения.
f - Относительная влажность воздуха - влажноcть воздуха, измеренная на высоте 2 м над землей.
Te - Эффективная температура - температура, которую ощущает одетый по сезону человек в тени. Характеристика душности погоды. При расчете учитывается влияние влажности воздуха и скорости ветра на теплоощущения человека.
Tes - Эффективная температура на солнце - температура, которую ощущает человек, с поправкой на солнечный нагрев. Характеристика знойности погоды. Зависит от высоты солнца над горизонтом, облачности и скорости ветра. Ночью, в пасмурную погоду, а также при ветре 12 м/с и более поправка равна нулю.
P - Атмосферное давление - приведенное к уровню моря атмосферное давление.
Po - Атмосферное давление - измеренное на уровне метеостанции атмосферное давление.
Tmin - Минимальная температура - минимум температуры воздуха на высоте 2 м над землей.
Tmax - Максимальная температура - максимум температуры воздуха на высоте 2 м над землей.
R - Количество осадков - Количество выпавших осадков за период времени, мм. При наведении курсора мыши на число - период времени, за который выпало указанное количество осадков.
R24 - Количество осадков - Количество выпавших осадков за 24 часа, мм.
S - Снежный покров - Высота снежного покрова, см. При наведении курсора мыши на число - состояние снежного покрова и степень покрытия местности в баллах.